Location: Esp�n
(42.4593°N, 0.2047°W)
Time: 22:53:07
(UTC+00:00)

CZ-4C R/B - Pass Details

Date: 07 June 2020
Orbit: 408 x 493 km, 97.7° (Epoch: 11 July)

Event Time Altitude Azimuth Distance (km) Brightness Sun altitude
Rises 03:41:32 0° 180° (S) 2,557 6.3 -7.1°
Reaches altitude 10° 03:43:39 10° 186° (S) 1,683 5.4 -6.8°
Maximum altitude 03:47:09 45° 260° (W) 679 3.4 -6.3°
Drops below altitude 10° 03:50:40 10° 335° (NNW) 1,690 6.0 -5.8°
Sets 03:52:48 0° 342° (NNW) 2,569 7.0 -5.5°
